EET,Max TemperatureF,Mean TemperatureF,Min TemperatureF,Max Dew PointF,MeanDew PointF,Min DewpointF,Max Humidity, Mean Humidity, Min Humidity, Max Sea Level PressureIn, Mean Sea Level PressureIn, Min Sea Level PressureIn, Max VisibilityMiles, Mean VisibilityMiles, Min VisibilityMiles, Max Wind SpeedMPH, Mean Wind SpeedMPH, Max Gust SpeedMPH,PrecipitationIn, CloudCover, Events, WindDirDegrees
2012-11-1,70,57,42,48,45,39,94,68,24,30.18,30.12,30.06,12,7,6,7,3,,0.00,3,Rain,35
2012-11-2,71,56,42,46,42,39,87,66,21,30.12,30.08,30.06,12,6,4,7,1,,0.00,5,,19
2012-11-3,66,52,39,48,43,37,93,75,43,30.18,30.12,30.06,12,7,6,7,2,,0.00,4,,22
2012-11-4,69,54,38,46,40,36,100,69,22,30.24,30.17,30.12,12,6,4,8,2,,0.00,3,,17
2012-11-5,72,53,34,41,36,32,93,63,16,30.18,30.13,30.09,12,7,6,6,2,,0.00,5,,41
2012-11-6,72,52,32,39,35,30,93,59,12,30.12,30.09,30.04,12,8,6,7,1,,0.00,5,,39
2012-11-7,72,54,35,43,37,32,93,59,20,30.15,30.07,30.01,12,8,6,8,1,,0.00,6,,311
2012-11-8,64,52,41,48,44,37,94,74,34,30.01,29.94,29.86,12,6,4,12,2,,0.08,7,Rain,263
2012-11-9,58,53,48,50,46,43,97,78,48,29.92,29.82,29.77,12,6,4,22,5,32,0.02,7,Rain,115
2012-11-10,52,49,44,46,46,41,93,88,69,29.92,29.87,29.83,12,6,4,16,5,,0.16,8,Rain,268
2012-11-11,48,45,42,43,41,37,93,85,71,30.09,29.99,29.89,12,6,3,22,10,33,0.31,8,Rain,57
2012-11-12,54,48,43,46,42,39,93,79,52,30.21,30.13,30.06,12,6,4,18,3,,0.00,7,Rain,84
2012-11-13,54,47,40,45,42,37,93,80,49,30.24,30.20,30.15,12,7,6,8,1,,0.00,6,,261
2012-11-14,55,47,39,43,40,36,93,75,40,30.21,30.18,30.15,12,6,2,5,2,,0.00,5,,260
2012-11-15,58,44,29,45,37,30,100,84,34,30.27,30.23,30.18,12,3,0,8,1,,0.00,1,Fog,28
2012-11-16,62,46,30,43,36,30,100,82,32,30.27,30.24,30.21,12,2,0,5,1,,0.00,3,Fog,40
2012-11-17,63,46,30,41,36,30,100,74,26,30.21,30.16,30.09,6,4,0,12,2,,0.00,6,Fog,50
2012-11-18,55,44,34,45,39,36,100,88,52,30.18,30.13,30.09,6,2,0,8,3,,0.00,6,Fog,242
2012-11-19,46,43,39,41,39,37,93,87,72,30.21,30.17,30.12,6,3,1,8,4,,0.00,6,,241
2012-11-20,46,39,32,37,35,30,100,85,62,30.24,30.20,30.15,5,3,2,7,1,,0.00,6,,274
2012-11-21,46,39,32,37,36,35,93,84,61,30.21,30.15,30.12,6,4,1,6,1,,0.00,5,,175
2012-11-22,47,42,37,39,37,35,93,84,68,30.12,30.09,30.06,6,4,2,13,3,,0.04,7,Rain,261
2012-11-23,42,40,39,41,40,38,100,93,87,30.15,30.11,30.09,6,4,2,8,4,,0.16,8,Rain,251
2012-11-24,46,42,39,41,41,37,100,90,74,30.12,30.10,30.06,5,4,1,6,3,,0.03,7,Fog-Rain,239
2012-11-25,45,42,39,41,39,37,100,91,81,30.12,30.11,30.09,6,5,2,7,4,,0.16,7,Rain,243
2012-11-26,46,42,35,39,36,32,100,81,49,30.18,30.14,30.12,6,4,1,4,0,,0.00,6,,180
2012-11-27,51,39,27,36,31,27,100,79,44,30.21,30.17,30.15,12,6,4,6,2,,0.00,3,,40
2012-11-28,55,40,25,36,30,25,100,79,37,30.24,30.19,30.15,12,4,2,5,1,,0.00,,,53
2012-11-29,52,38,25,36,31,25,93,78,37,30.21,30.15,30.09,12,5,1,5,1,,0.00,6,,25
2012-11-30,60,45,30,39,34,28,93,76,32,30.24,30.17,30.12,6,4,2,6,1,,0.00,4,,31